This is the latest recevied weather packets stored in our database for station/object N9WHM. If no packets are shown the sender has not sent any weather packets the latest 10 day(s).
| Time | Temp. | Humidity | Pressure | Rain* | Wind** | Luminosity | Snow |
|---|---|---|---|---|---|---|---|
| 1777650417 | 10.56° C | 60% | 1019.2 hPa | 0 mm | - | 646 W/m² | - |
| 1777650113 | 9.44° C | 64% | 1019.1 hPa | 0 mm | - | 551 W/m² | - |
| 1777649811 | 9.44° C | 64% | 1019.2 hPa | 0 mm | - | 133 W/m² | - |
| 1777649508 | 9.44° C | 64% | 1019.1 hPa | 0 mm | - | 153 W/m² | - |
| 1777649204 | 9.44° C | 65% | 1018.9 hPa | 0 mm | - | 162 W/m² | - |
| 1777648901 | 10° C | 64% | 1018.8 hPa | 0 mm | - | 552 W/m² | - |
| 1777648599 | 9.44° C | 66% | 1019.1 hPa | 0 mm | - | 536 W/m² | - |
| 1777648295 | 9.44° C | 67% | 1018.9 hPa | 0 mm | - | 481 W/m² | - |
| 1777647992 | 9.44° C | 67% | 1019 hPa | 0 mm | - | 492 W/m² | - |
| 1777647688 | 9.44° C | 68% | 1019 hPa | 0 mm | - | 463 W/m² | - |
| 1777647383 | 9.44° C | 68% | 1018.9 hPa | 0 mm | - | 482 W/m² | - |
| 1777647082 | 8.89° C | 70% | 1018.9 hPa | 0 mm | - | 433 W/m² | - |
| 1777646778 | 8.89° C | 70% | 1018.8 hPa | 0 mm | - | 390 W/m² | - |
| 1777646478 | 8.33° C | 72% | 1018.9 hPa | 0 mm | - | 361 W/m² | - |
| 1777646174 | 8.33° C | 72% | 1018.8 hPa | 0 mm | - | 349 W/m² | - |
| 1777645872 | 8.33° C | 72% | 1019 hPa | 0 mm | - | 337 W/m² | - |
| 1777645569 | 8.33° C | 73% | 1018.9 hPa | 0 mm | - | 319 W/m² | - |
| 1777645265 | 7.78° C | 73% | 1018.9 hPa | 0 mm | - | 303 W/m² | - |
| 1777644961 | 7.78° C | 73% | 1018.8 hPa | 0 mm | - | 292 W/m² | - |
| 1777644659 | 7.78° C | 73% | 1018.8 hPa | 0 mm | - | 276 W/m² | - |
| 1777644354 | 7.22° C | 75% | 1018.8 hPa | 0 mm | - | 263 W/m² | - |
| 1777644050 | 7.22° C | 74% | 1018.6 hPa | 0 mm | - | 247 W/m² | - |
| 1777643748 | 7.22° C | 75% | 1018.7 hPa | 0 mm | - | 237 W/m² | - |
| 1777643445 | 6.67° C | 75% | 1018.8 hPa | 0 mm | - | 224 W/m² | - |
| 1777643142 | 6.67° C | 76% | 1018.7 hPa | 0 mm | - | 210 W/m² | - |
* Rain latest hour (hover to see other rain measurements)
** Current wind speed in m/s (hover to see current wind gust speed)